CAPE
121 629 1039 927 1089 1240 1047 996 1103 1704 1411 985 940 934 717 711 738 763 876 1005 1064 1045 1378 1444 1366 1239 1217 1232 1307 1405 1743 1797 1825 1854 1597 1487 1715 1105 1248 1449 1652 1350 1691
134 925 987 1194 901 1395 1435 1349 1031 1897 1657 1399 984 931 928 832 901 868 980 1027 1107 1053 1252 1264 1267 1260 1317 1410 1563 1629 1868 1751 1529 1401 1249 1231 1375 1626 1286 1642 1644 1535 1578
467 912 989 1066 1503 1553 1549 1156 1381 1791 1868 1614 1139 1001 933 1101 1019 1041 1101 956 971 1064 1203 1162 1324 1361 1450 1648 1834 1891 1795 1791 1496 1175 1210 894 1161 1658 1467 1773 1819 1985 1532
502 747 854 1137 1539 1562 1573 1424 1713 1544 1759 1648 1520 1218 996 912 1100 1002 1086 1174 1012 975 1263 1609 1683 1663 1847 1973 1946 1802 1678 1800 1523 1180 828 862 1171 1533 1573 1627 1553 1509 1390
462 601 744 787 1507 1540 1656 1687 1668 1908 1945 1731 1666 1553 1058 908 858 999 1023 1055 1341 1473 1556 1537 1620 1665 1859 2038 1932 1821 1741 1661 1191 823 565 625 953 1335 1456 1458 1305 1306 1303
407 352 494 1223 855 730 1463 1824 1811 2000 1641 1492 1570 1105 871 593 646 850 904 1310 1333 1446 1520 1590 1528 1377 1838 1757 1762 1747 1720 1385 634 499 571 746 637 1399 1331 1269 1212 1222 1172
344 334 635 1142 806 1328 1651 1980 2142 1863 1611 1324 1079 711 534 696 645 790 854 868 1069 1247 1481 1615 1571 1541 1635 1687 1681 1603 1435 830 298 414 470 352 599 1382 1356 1283 1231 1124 1086
343 369 383 480 618 1402 1635 2019 1872 1721 1567 1257 1142 807 528 679 533 697 421 342 450 633 1021 1232 1171 1184 1052 883 1341 1359 719 385 251 274 307 317 1051 1473 1372 1231 1100 1148 1288
320 320 279 296 533 743 1224 1413 1532 1478 1262 1131 954 822 668 737 788 747 540 256 227 338 922 1078 1165 1173 245 350 540 353 163 158 203 236 204 190 893 1321 1206 1058 1149 1121 896
330 328 203 212 190 312 352 775 1001 907 817 833 600 385 227 207 339 599 560 543 301 500 759 1139 1170 1087 511 702 269 151 73 44 67 176 199 254 839 1325 949 904 860 793 721
236 218 92 103 163 112 41 110 84 191 338 407 222 63 16 0 0 89 134 248 302 392 421 798 1091 875 529 246 163 74 34 43 50 129 139 526 884 1053 937 883 783 658 511
77 128 79 57 66 42 13 0 0 11 46 6 0 0 0 0 0 0 0 0 227 208 337 805 679 277 59 2 1 10 18 50 68 180 81 522 537 399 544 414 397 384 291
0 2 25 54 48 28 1 0 0 0 0 0 0 0 0 0 0 0 1 0 0 34 20 153 83 1 1 1 1 1 1 9 65 170 317 262 335 558 607 328 289 242 177
0 0 0 0 0 0 0 0 0 0 0 0 0 0 0 0 0 0 1 0 0 0 1 16 1 1 1 1 1 1 1 0 1 1 182 254 580 531 374 266 170 133 63
0 0 0 0 23 23 12 5 0 0 0 0 0 0 0 0 0 0 0 0 0 0 0 1 1 1 1 1 1 1 1 0 1 1 1 24 134 270 194 194 139 74 46
0 0 0 0 0 14 26 1 0 0 0 0 0 0 0 0 0 0 0 1 1 0 0 1 1 1 1 0 1 1 1 1 0 1 0 0 9 45 72 69 54 35 23
0 0 0 1 0 0 2 0 0 0 0 0 0 0 0 0 0 0 0 1 1 1 0 1 0 1 1 1 1 1 0 0 0 0 0 0 0 8 32 31 24 22 23
2 2 2 2 1 0 1 1 0 0 0 0 0 0 0 0 0 0 0 0 1 0 0 2 0 2 1 1 1 1 0 0 0 0 0 0 0 0 22 37 30 22 27
7 4 2 4 6 1 2 2 0 0 0 0 0 0 0 0 0 0 0 0 0 0 0 0 0 0 1 1 0 0 0 0 0 0 0 0 0 0 0 21 24 29 28
4 4 4 5 5 3 3 2 0 0 0 0 0 0 0 0 0 0 0 0 0 0 0 0 0 0 0 0 0 0 0 0 0 0 0 0 0 0 0 0 0 3 30
0 2 3 4 5 7 6 2 0 3 0 0 0 0 0 0 0 0 0 0 0 0 0 0 0 0 0 0 0 0 0 0 0 0 0 0 0 0 0 0 0 0 0
0 3 2 5 5 6 8 8 6 5 1 0 0 0 0 0 0 0 0 1 0 0 0 0 0 0 0 0 0 0 0 0 0 0 0 0 0 0 0 0 0 0 0
0 2 8 5 8 7 5 8 4 0 3 0 0 0 0 0 0 0 0 0 0 0 0 0 0 0 0 0 0 0 0 0 0 0 0 0 0 0 0 0 0 0 0
2 1 5 6 5 10 5 4 5 4 4 3 0 0 0 0 0 0 0 0 0 1 0 0 0 0 0 0 0 0 0 0 0 0 0 0 0 0 0 0 0 0 0
4 2 2 5 2 3 7 7 4 3 3 3 1 0 0 0 0 0 0 0 0 0 0 0 0 0 0 0 0 0 0 0 0 0 0 0 0 0 0 0 0 0 0
0 1 3 5 3 3 4 4 5 4 2 2 1 0 0 0 0 0 0 0 0 0 0 0 0 0 0 0 0 0 0 0 0 0 0 0 0 0 0 0 0 0 0
CIN
-412 -246 -149 -152 -117 -80 -78 -74 -57 -15 -10 -17 -4 -0 -4 -8 -9 -10 -3 -0 -0 -0 -0 -0 -0 -0 -0 -1 -1 -1 -0 -0 -1 -1 -1 -0 -0 -0 -1 -0 -0 -0 -0
-444 -193 -150 -116 -131 -62 -45 -40 -56 -6 -1 -0 -2 -0 -0 -1 -0 -1 -0 -0 -0 -0 -0 -0 -0 -0 -0 -0 -0 -1 -1 -2 -6 -11 -14 -4 -1 -0 -0 -0 -1 -0 -0
-312 -195 -154 -126 -77 -48 -35 -54 -29 -5 -0 -0 -0 -0 -0 -0 -0 -0 -0 -0 -0 -0 -0 -0 -0 -0 -0 -0 -0 -0 -0 -4 -11 -16 -15 -17 -2 -0 -0 -0 -0 -0 -0
-309 -224 -188 -130 -73 -49 -31 -31 -7 -7 -0 -0 -0 -0 -0 -0 -0 -0 -0 -0 -0 -0 -0 -0 -0 -0 -0 -1 -0 -0 -0 -1 -9 -17 -23 -12 -0 -0 -0 -0 -0 -0 -0
-315 -265 -212 -173 -73 -51 -24 -13 -4 -0 -0 -0 -0 -0 -0 -0 -0 -0 -0 -0 -0 -0 -0 -0 -0 -0 -0 -0 -0 -0 -0 -0 -10 -19 -34 -21 -7 -1 -0 -0 -0 -0 -0
-334 -319 -246 -115 -134 -116 -40 -7 -0 -0 -0 -0 -0 -0 -0 -0 -0 -0 -0 -0 -1 -0 -1 -0 -1 -3 -1 -1 -1 -0 -1 -5 -23 -38 -45 -38 -47 -0 -0 -0 -0 -0 -0
-346 -312 -194 -101 -123 -57 -20 -1 -0 -0 -0 -0 -0 -0 -2 -0 -0 -0 -2 -3 -2 -2 -1 -0 -1 -2 -2 -2 -1 -3 -4 -17 -77 -55 -62 -89 -57 -0 -0 -0 -0 -0 -0
-390 -318 -240 -167 -115 -41 -10 -0 -0 -0 -0 -0 -0 -0 -0 -0 -0 -0 -6 -13 -15 -9 -1 -1 -2 -3 -6 -17 -3 -6 -26 -34 -85 -91 -82 -90 -19 -0 -0 -0 -0 -0 -0
-298 -282 -254 -189 -107 -70 -23 -8 -1 -0 -0 -0 -0 -0 -0 -1 -0 -0 -2 -11 -25 -25 -4 -3 -2 -3 -67 -61 -35 -61 -151 -120 -107 -96 -97 -117 -17 -0 -0 -0 -0 -2 -0
-252 -220 -255 -210 -160 -98 -74 -27 -16 -12 -8 -1 -2 -3 -11 -9 -5 -1 -1 -1 -15 -18 -9 -2 -2 -2 -22 -11 -50 -76 -163 -151 -166 -126 -114 -77 -12 -0 -0 -0 -0 -0 -0
-221 -228 -263 -233 -174 -147 -193 -102 -93 -58 -33 -18 -20 -59 -42 -0 -0 -20 -8 -5 -8 -10 -17 -8 -1 -3 -6 -26 -40 -100 -96 -134 -172 -120 -87 -20 -1 -0 -0 -0 -0 -0 -0
-218 -209 -225 -234 -207 -244 -282 -0 -0 -143 -138 -34 -0 -0 -0 -0 -0 -0 -0 -0 -5 -11 -17 -3 -4 -12 -74 -16 -0 -105 -87 -112 -127 -65 -65 -13 -12 -0 -2 -0 -0 -2 -0
-0 -29 -247 -206 -229 -280 -328 -0 -0 -0 -0 -0 -0 -0 -0 -0 -0 -0 -0 -0 -0 -9 -29 -12 -13 -0 -0 -0 -0 -0 -21 -112 -97 -33 -12 -0 -2 -0 -0 -0 -0 -0 -0
-0 -0 -0 -0 -0 -0 -0 -0 -0 -0 -0 -0 -0 -0 -0 -0 -0 -0 -0 -0 -0 -0 -0 -8 -0 -0 -0 -0 -0 -0 -0 -0 -0 -0 -2 -7 -0 -0 -0 -0 -0 -0 -12
-0 -0 -0 -0 -71 -116 -103 -105 -0 -0 -0 -0 -0 -0 -0 -0 -0 -0 -0 -0 -0 -0 -0 -0 -0 -0 -0 -0 -0 -0 -0 -0 -0 -0 -6 -8 -0 -0 -1 -0 -0 -5 -47
-0 -0 -0 -0 -0 -51 -95 -107 -0 -0 -0 -0 -0 -0 -0 -0 -0 -0 -0 -0 -0 -0 -0 -0 -0 -0 -0 -0 -0 -0 -0 -0 -0 -0 -0 -0 -42 -3 -0 -2 -9 -41 -80
-0 -0 -0 -0 -0 -0 -0 -0 -0 -0 -0 -0 -0 -0 -0 -0 -0 -0 -0 -0 -0 -0 -0 -0 -0 -0 -0 -0 -0 -0 -0 -0 -0 -0 -0 -0 -0 -3 -1 -0 -0 -0 -0
-0 -0 -0 -0 -0 -0 -0 -0 -0 -0 -0 -0 -0 -0 -0 -0 -0 -0 -0 -0 -0 -0 -0 -0 -0 -0 -0 -0 -0 -0 -0 -0 -0 -0 -0 -0 -0 -1 -1 -0 -0 -0 -0
-0 -0 -0 -0 -0 -0 -0 -0 -0 -0 -0 -0 -0 -0 -0 -0 -0 -0 -0 -0 -0 -0 -0 -0 -0 -0 -0 -0 -0 -0 -0 -0 -0 -0 -0 -0 -0 -0 -0 -7 -4 -0 -0
-0 -0 -0 -0 -0 -0 -0 -0 -0 -0 -0 -0 -0 -0 -0 -0 -0 -0 -0 -0 -0 -0 -0 -0 -0 -0 -0 -0 -0 -0 -0 -0 -0 -0 -0 -0 -0 -0 -0 -0 -0 -6 -1
-0 -0 -0 -0 -0 -0 -0 -0 -0 -0 -0 -0 -0 -0 -0 -0 -0 -0 -0 -0 -0 -0 -0 -0 -0 -0 -0 -0 -0 -0 -0 -0 -0 -0 -0 -0 -0 -0 -0 -0 -0 -0 -0
-0 -0 -0 -0 -0 -0 -0 -0 -0 -0 -0 -0 -0 -0 -0 -0 -0 -0 -0 -0 -0 -0 -0 -0 -0 -0 -0 -0 -0 -0 -0 -0 -0 -0 -0 -0 -0 -0 -0 -0 -0 -0 -0
-0 -0 -0 -0 -0 -0 -0 -0 -0 -0 -0 -0 -0 -0 -0 -0 -0 -0 -0 -0 -0 -0 -0 -0 -0 -0 -0 -0 -0 -0 -0 -0 -0 -0 -0 -0 -0 -0 -0 -0 -0 -0 -0
-0 -0 -0 -0 -0 -0 -0 -0 -0 -0 -0 -0 -0 -0 -0 -0 -0 -0 -0 -0 -0 -1 -0 -0 -0 -0 -0 -0 -0 -0 -0 -0 -0 -0 -0 -0 -0 -0 -0 -0 -0 -0 -0
-0 -0 -0 -0 -0 -0 -0 -0 -0 -0 -0 -0 -0 -0 -0 -0 -0 -0 -0 -0 -0 -0 -0 -0 -0 -0 -0 -0 -0 -0 -0 -0 -0 -0 -0 -0 -0 -0 -0 -0 -0 -0 -0
-0 -0 -0 -0 -0 -0 -0 -0 -0 -0 -0 -0 -0 -0 -0 -0 -0 -0 -0 -0 -0 -0 -0 -0 -0 -0 -0 -0 -0 -0 -0 -0 -0 -0 -0 -0 -0 -0 -0 -0 -0 -0 -0
Wind_Speed
4 9 19 18 17 17 17 16 15 14 13 13 12 11 10 10 9 9 9 9 9 9 10 10 10 10 8 7 7 10 9 9 8 11 12 14 15 18 17 14 13 12 19
10 10 18 16 17 16 16 15 14 13 14 13 13 12 10 10 9 9 9 9 9 9 10 10 10 10 9 9 9 9 8 10 9 10 12 11 15 17 17 12 12 14 17
11 10 12 16 15 15 16 15 14 12 14 13 13 12 11 10 10 10 9 9 9 9 10 10 10 10 10 10 10 10 10 11 10 10 11 5 9 17 17 13 15 16 18
11 10 9 17 16 16 15 15 14 13 15 13 12 12 11 10 10 10 9 9 9 10 10 10 10 10 10 11 10 11 12 12 11 11 6 5 9 17 18 17 18 18 19
11 10 11 19 17 16 15 14 14 13 15 13 11 11 11 10 10 9 9 9 7 8 8 8 9 9 10 10 11 11 13 12 11 8 6 5 5 14 18 18 18 19 19
9 10 12 16 18 18 15 15 14 16 15 14 13 11 11 10 9 11 10 8 8 7 8 9 9 10 10 10 11 12 13 13 9 6 6 7 5 17 19 19 19 20 21
9 7 9 15 17 14 13 13 15 15 15 15 14 12 11 11 10 9 8 8 8 9 8 10 12 12 10 9 10 10 11 10 6 5 5 5 5 18 20 21 22 23 24
13 12 11 14 16 13 12 15 15 15 14 14 13 12 11 11 11 10 9 9 7 7 8 9 12 11 10 8 8 11 10 8 7 5 5 5 15 19 22 23 22 23 23
7 10 9 12 9 10 14 12 13 13 13 12 11 11 9 8 10 12 11 10 9 8 7 9 12 14 12 10 7 8 11 8 7 5 5 5 17 22 24 24 24 24 26
6 8 8 8 8 5 4 9 12 12 11 9 9 8 8 7 9 10 9 10 9 9 8 10 15 15 14 10 9 12 12 10 6 6 4 5 21 24 25 25 25 25 25
3 5 5 6 7 5 2 3 4 6 7 9 7 7 6 3 4 6 6 9 9 8 8 13 16 15 14 13 12 11 7 4 5 3 4 15 21 27 26 25 25 25 25
4 3 4 6 6 5 3 4 5 4 3 4 4 5 4 5 4 4 3 4 9 9 9 16 16 16 11 6 6 7 3 4 5 4 5 25 21 29 24 22 24 24 25
13 2 5 5 6 7 5 3 2 3 2 2 5 4 5 3 2 2 1 2 3 6 3 7 12 6 6 6 6 6 5 4 5 5 8 26 21 25 27 25 26 26 25
18 18 17 6 5 6 5 4 4 3 3 3 4 6 4 3 3 2 2 4 4 4 5 7 6 9 8 9 9 9 8 7 6 4 10 31 26 29 27 27 27 26 24
21 21 21 21 5 8 9 7 5 4 4 4 4 5 4 4 4 3 2 2 4 6 7 7 8 10 10 10 9 10 10 12 11 5 7 25 25 26 26 25 25 24 23
22 22 21 20 18 7 6 8 7 5 5 5 4 3 4 4 4 3 2 2 4 6 8 8 9 10 10 11 10 10 13 11 13 10 7 13 22 22 24 23 23 22 23
20 22 22 19 18 15 13 4 6 5 6 3 3 4 4 5 4 3 3 2 5 6 8 8 11 10 9 10 11 11 11 11 12 10 8 9 11 19 20 23 24 24 23
21 22 21 18 18 16 13 8 5 5 7 4 4 3 5 5 5 3 4 3 5 8 9 9 13 11 10 11 9 9 9 10 12 10 8 9 7 8 15 21 22 23 21
21 21 21 21 19 17 14 11 4 7 7 5 5 4 4 5 6 5 4 3 6 7 8 10 10 12 11 11 10 11 9 8 10 9 12 12 12 9 7 17 19 18 18
19 20 21 18 20 18 12 11 2 4 4 4 6 4 6 5 6 6 4 6 6 9 9 11 14 11 12 13 12 12 10 7 8 7 11 7 9 12 8 9 7 8 15
20 21 22 22 22 15 13 11 5 6 3 5 5 6 6 6 6 7 6 6 8 10 11 14 14 18 11 13 13 11 10 10 10 7 7 8 10 8 9 9 6 5 5
22 22 22 21 21 14 11 10 6 6 5 4 7 7 6 6 6 8 9 6 8 12 13 15 17 13 10 4 9 10 4 6 7 8 7 7 8 5 9 9 9 8 6
22 22 21 20 19 18 19 10 9 6 4 3 4 5 6 8 7 7 8 8 9 11 13 15 17 22 13 4 9 6 6 4 3 5 7 5 6 5 6 7 8 8 8
21 20 21 20 19 17 18 12 14 7 7 7 6 8 8 8 8 8 8 9 14 10 13 13 13 13 14 17 2 2 3 11 6 4 3 3 3 6 5 5 6 6 6
20 19 20 21 19 19 18 16 11 11 7 9 6 7 9 9 9 8 8 9 11 10 13 15 12 10 9 10 3 6 11 5 5 6 5 2 3 3 4 4 4 5 5
18 19 18 21 20 20 19 18 17 16 15 11 12 5 7 8 8 9 9 9 10 10 12 12 11 13 10 8 6 9 12 7 7 6 5 5 5 2 3 3 4 4 4
Wind_Direction
197 170 170 166 162 158 154 153 152 153 147 148 147 145 144 141 137 136 137 143 144 150 149 154 153 155 158 150 140 156 151 142 131 133 137 146 143 139 131 125 120 124 126
141 162 168 168 165 162 158 158 155 154 153 155 153 152 147 149 152 154 154 154 157 163 164 161 162 161 161 155 148 146 146 131 137 140 139 151 141 137 134 122 122 126 127
141 154 162 169 165 164 162 161 162 161 158 160 158 156 155 158 165 168 168 168 170 177 175 172 172 164 161 150 149 150 154 146 144 138 126 127 135 137 134 128 128 126 127
145 157 159 168 167 168 165 165 164 167 163 163 161 160 162 170 176 180 182 174 179 186 187 181 174 171 166 146 154 155 157 147 131 126 111 118 136 139 136 132 133 132 130
154 160 166 172 172 170 172 165 164 176 166 163 163 160 167 175 186 185 180 185 194 197 191 186 171 172 168 152 158 163 158 143 129 116 109 115 129 141 142 138 134 131 129
155 164 171 175 174 179 166 170 176 163 165 162 159 165 175 174 180 186 186 186 187 188 183 179 166 170 160 167 167 167 162 141 112 116 124 137 146 145 138 131 130 125 123
157 159 167 175 180 175 173 173 165 162 166 166 165 172 175 173 171 174 166 159 171 185 186 181 166 165 166 166 169 163 151 123 114 131 133 125 145 143 137 131 127 125 123
159 162 168 179 185 166 175 167 162 163 167 169 170 176 182 181 172 164 166 168 172 180 182 183 175 167 139 140 153 144 124 132 125 147 136 134 153 149 143 133 129 121 114
152 157 160 177 183 182 175 168 164 165 168 171 172 174 176 173 170 176 179 180 187 181 187 185 172 163 162 155 121 107 107 114 132 143 149 156 155 150 141 132 125 120 117
152 161 166 163 179 190 185 165 159 162 161 164 170 174 177 175 176 179 186 181 195 198 192 186 170 167 165 149 117 109 103 120 127 134 160 170 161 148 140 133 127 123 117
173 169 164 150 155 174 151 174 156 154 170 164 168 162 136 140 149 165 170 183 196 197 208 176 164 162 131 116 112 108 127 133 113 132 148 162 150 148 130 123 119 115 112
184 181 175 161 156 153 161 142 135 143 150 153 164 150 131 135 142 143 163 220 212 206 210 169 148 127 125 117 103 92 95 92 89 104 137 140 126 110 121 124 127 119 114
333 250 189 184 176 164 164 161 150 145 158 176 148 133 123 117 116 108 190 217 212 191 185 161 129 122 125 119 106 100 88 82 76 117 129 172 124 129 121 127 118 116 115
351 358 343 252 180 180 158 163 162 155 159 165 156 146 137 137 129 144 195 203 183 156 130 143 138 130 122 110 108 101 95 93 75 60 131 128 133 124 123 120 118 117 118
359 351 348 336 267 181 180 172 154 167 160 160 151 153 136 146 146 140 183 180 161 149 143 135 140 127 116 107 103 106 107 88 87 65 99 109 115 115 116 116 118 116 115
352 348 346 339 351 308 183 161 162 164 140 155 147 146 140 114 134 128 151 162 127 140 147 144 137 125 119 114 105 104 98 92 89 77 69 90 103 112 116 117 112 113 114
349 344 348 341 344 351 326 195 162 163 134 153 135 145 132 130 129 156 142 137 137 137 135 132 114 109 106 107 96 89 90 83 82 72 65 81 101 103 110 116 115 115 116
351 350 343 340 342 346 330 304 163 160 133 146 126 119 135 135 141 155 136 122 136 133 124 126 116 108 96 99 89 79 81 83 81 76 81 77 65 94 107 115 117 116 120
352 348 347 343 343 348 334 321 201 151 135 142 121 129 145 147 156 154 145 123 131 124 127 120 109 111 102 88 86 71 61 69 80 80 75 71 72 61 68 94 100 106 114
355 352 349 347 344 352 348 329 276 136 127 140 129 149 155 157 164 149 140 132 136 119 116 114 111 101 107 105 84 65 50 51 54 62 73 76 75 68 69 65 54 92 115
357 357 354 349 346 354 356 350 8 323 177 138 143 153 159 159 166 152 148 138 139 128 127 123 118 119 111 117 102 79 58 49 52 51 70 69 64 78 78 70 62 56 61
356 353 353 352 345 357 352 332 317 311 302 179 154 153 160 164 167 160 153 144 140 128 135 137 135 128 119 133 126 111 80 36 27 22 46 61 61 68 73 71 72 62 58
359 353 348 350 345 354 351 324 337 287 247 129 151 154 173 173 169 166 163 148 133 143 147 149 148 147 141 118 145 126 138 145 156 5 12 41 74 71 65 75 74 64 62
353 351 347 346 352 353 350 350 352 344 330 346 213 175 161 170 177 172 171 162 150 163 154 154 159 155 146 158 140 118 89 138 134 126 6 9 58 86 75 64 69 70 63
350 352 347 348 352 351 353 353 340 347 324 305 287 170 163 168 178 179 177 167 165 167 168 157 178 155 167 158 161 126 112 81 99 128 137 181 52 47 82 87 91 87 75
351 352 353 351 345 354 350 4 348 345 326 345 348 232 181 164 173 183 183 173 174 169 169 177 184 166 173 147 148 139 152 158 157 140 120 147 133 65 76 97 112 109 103